Lapse_Rate
6.0 5.7 5.7 6.0 6.3 6.2 6.8 6.9 7.6 8.6 9.3 9.6 9.5 9.6 9.7 9.7 9.6 9.6 8.8 6.3 7.1 7.4 8.0 8.5 8.4 8.7 8.8 9.3 8.9 7.9 7.7 8.0 7.6 7.0 8.3 8.4 7.9 7.8 7.5 7.4 7.4 7.9 9.1
5.4 5.3 5.8 5.8 5.8 6.1 6.7 7.2 8.2 9.4 9.5 9.5 9.8 9.6 9.7 9.6 9.5 9.6 9.4 6.2 5.5 6.1 6.7 7.0 6.9 6.7 6.9 7.7 8.8 8.2 7.6 7.2 7.4 7.1 8.4 9.2 8.3 8.6 9.0 8.3 8.4 8.4 8.9
5.4 4.9 5.7 5.4 5.3 5.4 5.8 6.4 7.0 8.0 9.5 9.6 9.8 9.7 9.6 9.6 9.6 9.3 9.2 8.0 6.2 4.8 5.4 5.7 5.8 6.2 6.7 8.2 9.3 9.0 8.1 7.8 8.4 7.7 8.2 8.4 9.0 9.0 9.1 8.8 8.5 8.4 8.4
5.4 5.2 5.5 5.4 4.6 4.4 5.0 5.9 6.4 7.5 8.7 9.6 9.7 9.8 9.8 9.4 9.2 9.2 8.5 7.7 7.3 7.3 5.1 4.3 4.7 5.4 6.3 7.4 8.9 9.2 9.2 9.0 8.9 9.3 9.4 8.9 8.8 8.7 8.9 9.0 8.9 8.7 8.7
4.7 5.3 5.5 5.2 4.7 5.1 6.1 6.4 6.5 7.2 8.4 9.3 9.5 9.3 9.6 9.5 8.7 8.6 7.8 7.0 6.4 6.6 6.4 3.1 3.9 4.4 5.2 5.9 6.8 8.5 9.0 9.1 8.8 9.0 8.7 9.0 9.2 9.1 8.9 8.9 8.6 8.3 8.1
5.1 5.5 5.0 4.7 4.8 5.2 5.5 6.2 6.2 7.0 8.0 7.8 8.6 8.2 8.5 8.3 8.1 8.5 7.9 7.2 6.4 6.1 6.0 6.0 6.1 4.4 4.0 4.7 5.2 5.8 6.3 7.2 8.2 8.7 8.7 8.6 9.0 9.3 8.9 9.1 9.2 8.8 8.4
5.0 5.3 5.2 4.9 4.6 5.2 5.2 5.9 5.9 5.6 7.0 7.5 7.1 7.4 7.6 8.0 8.3 8.1 7.8 7.6 6.9 6.5 6.0 5.9 5.7 5.8 5.8 4.7 4.3 4.7 5.3 6.1 6.8 8.2 8.9 9.2 9.3 9.1 9.3 9.1 8.9 8.7 8.3
5.0 5.3 5.4 5.1 5.5 5.4 5.3 5.2 5.6 6.0 6.1 7.6 8.9 8.8 8.3 8.3 8.0 8.1 8.0 8.1 7.6 6.9 6.4 5.8 5.6 5.3 5.3 5.2 4.0 3.9 4.3 5.1 6.1 6.8 7.5 8.3 9.0 9.5 9.5 9.5 9.1 8.1 8.6
5.0 5.3 5.3 5.6 5.3 5.6 5.4 5.4 5.2 5.1 4.8 5.0 6.8 8.2 7.9 7.8 8.6 7.9 7.7 7.9 7.7 7.5 6.7 5.8 5.6 5.4 5.3 5.1 4.8 4.2 3.6 4.5 5.4 6.0 6.6 7.6 9.1 9.5 9.5 9.5 9.3 9.1 9.2
5.6 5.3 5.4 5.3 5.0 5.3 5.2 5.0 5.4 5.3 5.1 4.9 4.9 4.6 5.4 7.7 8.1 7.9 8.6 8.1 8.1 7.6 7.0 6.4 6.3 5.5 5.3 5.2 4.9 3.9 4.0 4.4 5.0 5.7 6.5 8.5 9.5 9.5 9.5 9.4 9.4 9.4 9.4
5.8 5.1 4.9 4.9 4.8 5.1 4.9 4.8 4.5 4.9 5.8 5.4 5.4 4.8 5.1 5.7 6.3 8.4 8.0 8.6 8.0 7.5 6.7 6.4 6.1 6.1 5.2 5.3 5.7 4.6 3.8 4.5 5.2 5.8 6.6 8.1 9.5 9.5 9.4 9.1 9.4 9.5 9.5
5.2 5.2 5.0 5.3 5.0 4.8 4.1 4.0 3.7 3.8 4.5 4.9 5.1 5.6 6.1 7.1 6.4 8.0 8.3 8.4 8.0 8.6 6.8 6.9 6.7 6.4 6.1 6.3 5.8 4.4 4.1 4.2 4.8 5.6 6.3 7.5 8.0 7.4 7.1 7.9 9.1 9.5 9.5
4.8 4.5 5.1 5.0 4.9 3.9 3.5 3.2 3.2 3.7 4.2 4.6 4.9 4.6 5.1 4.5 5.3 5.9 6.7 6.5 7.4 7.3 7.7 7.6 7.5 6.9 6.7 6.5 6.3 4.1 4.8 4.3 5.0 5.7 6.4 6.8 6.6 6.5 6.5 6.9 8.4 9.4 9.5
4.0 3.9 4.8 4.6 4.1 3.4 3.4 3.2 2.6 2.7 3.6 3.7 3.6 4.6 4.7 4.4 5.1 5.4 6.0 6.8 8.0 8.3 8.7 8.4 8.2 8.3 7.8 6.9 6.4 5.6 7.9 5.9 5.9 6.3 6.7 6.9 6.8 6.8 7.0 7.6 8.7 9.4 9.5
3.7 4.1 4.2 3.5 3.3 2.9 2.6 2.4 2.2 2.8 2.6 3.3 3.1 4.1 4.3 4.3 4.5 4.9 5.4 6.0 6.6 7.8 8.1 8.9 7.8 9.0 7.2 6.9 7.2 6.7 7.8 7.3 6.1 6.5 6.5 6.5 6.5 6.9 7.1 7.2 7.2 8.3 9.5
2.9 2.6 2.9 2.9 3.1 2.4 2.9 3.0 1.9 2.8 3.0 3.1 3.6 3.9 4.2 4.5 4.6 5.0 5.1 5.7 5.8 6.9 7.9 7.8 7.6 7.5 6.8 6.9 7.1 6.5 7.1 5.9 6.7 6.5 6.3 6.3 6.6 6.9 7.2 7.7 8.3 8.5 9.2
3.6 3.4 3.3 2.8 2.2 1.9 1.5 1.8 2.5 2.8 3.5 3.3 4.1 4.5 4.7 4.7 5.4 5.4 5.2 5.6 5.7 6.0 7.1 8.4 7.6 6.5 6.1 6.7 7.0 7.1 7.0 7.1 7.7 6.9 6.2 6.0 6.0 6.2 6.5 6.8 6.9 7.2 7.5
3.6 3.1 3.1 1.4 1.6 1.6 2.0 1.9 3.5 4.2 3.8 4.1 4.4 4.7 4.7 5.3 5.1 5.2 5.5 5.2 5.8 6.2 6.4 7.5 7.9 8.1 7.4 7.3 7.8 7.9 8.5 8.5 9.3 8.7 7.1 6.8 6.7 6.7 6.9 7.3 7.3 7.2 6.9
1.3 1.3 1.3 1.8 1.6 2.4 3.8 4.5 4.4 4.1 4.8 5.2 5.1 5.2 5.1 5.1 5.1 5.3 5.3 5.7 5.9 6.5 7.3 7.6 8.2 9.3 9.0 8.6 9.1 8.8 9.8 9.7 9.6 8.7 7.7 7.7 7.3 7.2 7.4 7.4 7.6 7.5 7.3
1.3 1.3 1.9 2.4 3.0 4.1 4.3 4.1 4.3 4.7 4.6 5.1 4.8 5.0 5.1 5.2 5.5 5.4 5.6 6.0 6.9 7.2 7.7 8.8 9.1 9.1 9.4 9.7 9.7 9.4 9.3 9.8 9.8 9.6 8.6 8.5 7.7 7.8 7.8 8.2 8.0 7.6 7.1
1.4 2.3 3.3 3.9 4.3 4.0 3.6 3.5 4.1 4.9 5.0 4.6 4.4 4.7 4.6 3.9 3.2 4.8 6.4 7.4 7.6 8.0 9.0 9.0 8.9 9.0 9.1 9.1 9.0 9.4 9.2 9.5 9.7 9.9 9.8 9.8 9.7 9.7 9.5 9.5 9.5 9.1 7.8
2.0 3.6 4.5 4.9 4.1 5.4 5.0 4.6 4.7 4.3 4.5 4.7 4.7 4.7 4.7 3.4 4.5 5.0 5.5 6.3 6.8 7.4 8.7 9.0 8.9 8.8 9.0 9.2 9.5 9.2 9.1 8.9 8.5 9.5 9.5 9.3 9.7 9.7 9.8 9.7 8.9 7.6 7.5
3.2 3.1 3.4 3.3 4.6 6.4 5.3 4.9 4.6 4.5 4.9 5.0 5.0 4.7 5.2 5.4 5.0 6.0 6.3 6.3 6.7 7.3 8.0 8.6 9.0 9.1 9.1 9.4 9.4 9.1 9.0 8.7 8.7 9.4 9.5 9.1 9.7 9.6 9.8 9.7 8.8 7.8 7.4
2.5 2.1 2.4 3.5 4.5 5.1 5.2 4.4 4.1 4.5 4.6 4.4 4.6 5.2 5.5 6.0 6.3 6.1 7.0 7.8 8.1 8.6 8.8 8.8 9.4 9.5 9.6 9.6 9.4 9.2 8.3 7.4 8.0 8.5 9.4 8.6 9.4 9.4 9.9 9.6 9.1 8.1 7.2
2.1 2.3 3.0 3.2 3.7 4.9 5.0 4.6 4.3 4.1 4.4 4.7 4.9 5.3 5.5 5.8 6.0 6.4 7.4 8.6 9.2 9.5 9.4 8.2 8.0 7.9 7.9 8.0 8.3 9.0 8.9 8.4 8.5 8.9 9.7 9.2 9.2 9.2 9.6 9.6 9.6 9.3 8.6
2.1 2.6 2.9 4.0 5.5 5.3 4.8 4.5 4.5 4.8 4.9 5.0 5.2 5.5 5.1 5.9 5.9 6.4 7.9 9.3 9.0 9.3 9.5 9.5 9.5 8.7 8.3 8.2 7.6 8.5 9.2 8.3 8.4 8.2 9.4 8.6 8.7 8.6 8.0 9.5 9.5 8.4 8.7
Wind_Speed
8 12 12 11 10 11 11 10 12 12 12 12 12 12 11 11 11 11 12 15 13 12 11 11 11 12 11 11 11 12 11 10 10 10 11 12 13 13 14 13 13 11 14
11 10 9 10 10 10 11 11 11 10 9 12 11 12 11 10 10 10 12 12 14 12 11 11 11 11 11 11 10 12 11 10 9 10 10 11 11 12 13 11 11 13 13
13 12 8 7 11 11 11 10 10 10 8 10 10 10 10 10 9 10 9 11 12 15 13 11 11 11 11 11 12 12 12 11 11 10 10 10 10 11 12 14 13 12 11
14 12 7 7 12 11 11 8 8 8 8 7 7 7 7 8 9 9 9 8 8 7 12 13 13 13 12 12 12 12 12 12 11 10 10 10 10 11 11 11 13 14 14
14 11 9 10 13 10 7 7 7 8 8 8 7 6 6 6 7 8 9 10 9 8 8 13 16 17 16 14 14 13 13 13 13 14 13 12 13 15 15 14 13 15 16
13 11 10 10 11 7 7 6 8 7 8 8 8 7 5 5 6 7 8 9 9 8 8 8 7 12 15 15 15 15 14 14 14 15 15 15 15 15 15 15 17 18 19
13 11 9 9 9 7 8 8 8 10 8 9 8 8 6 5 5 5 6 6 7 7 7 7 6 6 7 11 15 16 15 15 15 14 14 15 15 17 18 17 17 18 20
14 12 9 8 8 7 9 10 10 8 8 9 6 6 5 4 4 4 4 4 4 5 5 6 7 7 7 8 11 14 16 16 15 15 16 16 16 17 17 16 17 19 19
14 13 13 9 9 8 8 9 10 11 8 5 7 1 3 4 7 5 5 3 3 3 4 5 6 7 8 8 9 12 15 15 16 16 16 16 16 17 18 18 17 19 20
14 13 12 12 9 7 8 8 7 7 8 7 5 2 2 4 4 4 5 5 2 3 2 4 4 6 7 7 8 12 15 16 16 16 17 17 17 17 19 21 22 22 22
13 13 13 12 9 6 8 8 7 7 5 7 4 4 3 3 2 2 5 5 3 2 1 3 3 4 5 6 8 9 13 15 16 18 18 17 18 18 18 19 20 21 21
8 11 12 10 10 7 9 7 8 8 6 6 5 5 3 2 3 1 2 3 1 2 1 1 0 2 3 7 7 10 11 14 15 17 18 18 18 17 18 19 20 21 21
9 11 11 10 8 10 10 10 9 8 8 7 7 6 5 6 5 4 2 2 1 1 1 1 2 2 4 10 8 10 10 11 14 17 18 18 18 18 19 20 21 21 22
10 15 12 12 13 14 13 12 7 7 8 7 8 7 6 6 5 4 2 1 1 1 2 1 2 3 6 9 8 10 8 7 12 14 15 16 17 19 20 21 21 22 22
12 15 13 14 13 13 13 10 7 9 8 8 7 7 6 5 5 4 3 1 1 2 4 1 3 1 9 10 8 11 11 7 12 12 13 15 16 17 18 19 20 21 22
17 16 14 13 13 12 12 10 7 8 9 6 5 7 6 5 4 3 2 2 2 1 3 2 4 7 11 12 11 12 12 12 12 14 16 18 18 18 18 18 18 20 21
15 16 17 16 13 12 10 9 8 9 10 8 6 6 6 5 3 3 2 2 2 2 5 6 5 8 11 9 14 14 14 14 14 16 19 21 22 22 20 19 21 21 21
12 13 14 13 11 11 10 11 12 10 10 9 7 6 6 4 3 2 2 2 2 3 5 8 7 6 8 11 13 12 13 14 14 16 17 20 19 19 18 22 24 22 21
14 12 11 11 11 9 12 11 11 10 9 8 7 7 6 4 3 2 2 3 3 4 5 6 8 6 7 8 9 11 11 13 13 14 18 18 18 18 20 22 21 20 18
12 11 12 11 11 11 12 11 10 10 9 7 6 4 4 3 2 2 2 4 5 5 6 6 7 7 7 8 7 8 8 8 9 14 18 15 17 17 21 21 19 18 18
13 12 12 11 9 9 8 9 8 9 9 8 5 4 3 1 1 3 4 5 5 6 6 7 7 8 8 8 9 9 9 9 9 10 8 9 16 17 18 19 18 16 20
15 13 10 10 8 5 13 13 10 7 6 6 5 3 2 3 4 2 2 5 6 6 7 7 8 9 11 9 9 9 9 10 9 11 9 10 14 11 16 18 20 21 23
15 12 10 9 8 8 15 13 11 6 5 4 3 2 3 3 2 3 5 7 8 7 8 8 9 9 10 10 11 11 10 9 9 9 11 11 10 11 16 18 21 25 24
15 12 11 10 8 7 14 13 10 6 4 4 3 3 3 3 2 5 5 6 7 7 7 7 9 10 10 12 12 10 10 10 9 8 11 11 10 11 12 17 23 21 18
12 12 11 10 10 10 12 13 9 6 5 4 3 4 3 3 3 6 6 6 7 8 9 11 13 16 17 17 17 9 9 9 10 10 10 10 9 10 10 11 15 16 22
12 10 11 10 13 11 12 12 8 4 5 4 4 4 5 4 6 6 7 7 8 8 8 9 9 11 12 11 12 10 8 8 9 9 8 7 8 9 7 7 8 17 17
Wind_Direction
164 157 153 156 154 153 157 149 149 148 142 137 133 129 122 119 116 109 103 63 66 70 69 71 63 55 48 51 51 47 43 41 36 32 31 29 22 13 11 1 18 18 19
165 159 158 153 153 156 155 154 151 150 144 147 137 132 126 119 122 117 111 93 68 66 65 64 56 48 42 45 51 50 44 39 36 33 26 23 26 7 9 7 358 4 3
169 159 159 158 153 156 150 148 144 145 147 145 141 137 133 125 122 122 119 116 99 66 63 59 51 46 49 50 54 47 44 39 31 34 23 17 11 5 1 359 353 345 342
171 163 162 158 155 152 154 156 154 151 147 149 145 133 128 125 123 121 118 107 92 88 69 53 53 52 49 44 44 42 40 34 30 27 22 8 351 350 350 347 340 335 331
170 168 161 157 158 156 162 159 157 154 149 142 135 131 129 123 118 122 114 100 88 83 85 78 66 57 53 48 41 35 30 24 16 15 14 7 3 355 352 348 339 330 322
172 169 157 158 159 158 154 160 156 156 149 139 128 117 112 112 122 121 117 104 90 86 77 68 77 69 55 49 43 37 28 19 11 5 1 358 352 349 341 340 338 339 337
168 170 158 157 159 165 159 161 151 146 144 137 125 113 104 110 120 123 116 109 95 77 78 72 60 53 58 51 38 30 22 12 4 359 353 348 345 340 337 331 338 337 343
168 171 165 163 165 156 156 156 157 151 147 167 158 137 149 146 151 141 124 108 108 73 78 70 60 57 47 42 33 29 16 7 359 354 351 343 337 331 327 327 342 339 336
170 175 172 168 165 169 165 165 166 169 160 176 199 213 162 189 156 175 170 141 103 84 88 87 64 50 41 40 26 19 13 4 357 352 345 340 336 333 330 339 331 330 332
173 173 172 170 166 174 169 168 170 168 172 164 150 103 80 119 188 173 202 187 149 105 98 106 76 55 38 32 28 25 5 358 355 351 348 343 340 339 340 336 333 329 326
173 171 170 168 161 163 160 162 161 163 161 158 161 143 107 108 88 177 167 172 177 142 105 48 81 48 38 25 11 12 3 358 355 353 349 347 343 342 337 332 327 323 321
165 167 165 164 157 147 145 139 136 139 139 127 134 132 146 132 108 151 139 147 187 166 312 2 98 29 24 1 3 357 357 356 351 350 344 340 340 335 330 328 325 323 324
166 166 163 155 151 138 131 127 119 118 118 118 117 114 105 95 94 80 70 108 221 214 212 207 338 338 354 344 339 352 337 347 344 341 336 333 331 328 326 324 321 321 321
158 158 158 150 143 138 131 126 112 107 109 102 100 101 101 90 84 74 88 308 250 242 269 287 258 244 334 330 320 322 315 320 328 330 329 331 328 326 325 323 322 320 315
150 156 152 147 142 137 130 121 115 114 112 110 105 110 106 97 90 91 90 48 20 321 308 157 312 310 327 315 325 317 314 327 310 319 323 322 322 320 320 318 314 314 315
147 147 144 141 139 132 130 122 115 117 111 105 120 115 104 102 104 114 119 165 153 259 282 304 299 321 318 317 316 311 310 303 311 316 323 328 326 321 319 322 319 315 312
148 147 144 140 138 134 125 116 113 117 121 115 114 121 116 115 139 140 170 181 191 222 270 294 295 311 312 316 317 316 313 306 310 314 315 319 321 319 320 322 324 321 317
139 142 137 126 127 129 130 135 141 138 136 136 138 131 134 151 154 170 208 213 259 243 270 285 298 302 307 312 311 306 304 301 299 300 301 308 309 304 310 318 318 314 315
141 130 123 127 125 137 150 137 136 138 138 149 151 156 158 166 179 197 241 272 279 272 258 271 293 302 299 300 306 306 304 302 300 301 303 307 308 306 305 310 309 308 306
130 131 135 133 144 150 128 129 136 139 141 150 151 149 152 183 229 260 291 287 279 277 286 285 297 303 302 300 290 296 306 306 307 311 307 309 302 299 303 307 305 304 303
124 126 127 124 130 122 122 127 136 147 150 146 149 150 161 123 320 284 271 279 284 284 298 298 296 297 299 303 309 313 307 311 308 302 304 306 310 306 306 310 306 300 307
121 118 118 111 99 95 133 145 148 141 143 149 150 149 151 185 198 218 278 280 289 290 291 289 289 284 294 303 304 306 304 303 303 297 300 299 295 299 303 305 309 303 306
120 111 105 111 125 141 160 157 140 137 148 150 150 161 194 187 225 278 283 284 276 279 281 292 290 292 302 303 302 300 296 293 291 297 314 300 302 295 303 306 306 306 309
125 126 131 143 139 155 160 145 137 139 144 157 173 200 219 235 269 300 293 292 292 293 296 301 295 297 300 303 295 289 281 280 284 281 282 289 297 297 303 305 305 309 307
126 135 143 152 157 163 158 155 150 152 164 181 187 197 216 252 275 282 289 281 296 296 300 291 293 299 298 297 298 302 293 298 298 301 307 299 296 289 303 301 295 303 310
134 146 158 170 164 152 161 162 159 163 183 190 195 195 210 272 290 298 292 300 297 304 305 305 303 298 299 301 304 293 304 301 300 299 296 304 303 302 289 285 298 304 312